,

(GMT )
Munich

Weather History for EDDM - August, 2018

Change the Weather History Date:

Friday, August 10, 2018

  Actual Average Record
Temperature  
Mean Temperature 62 °F -  
Max Temperature 68 °F 73 °F 95 °F (2003)
Min Temperature 53 °F 54 °F 48 °F (2005)
Degree Days  
Heating Degree Days 4    
Growing Degree Days 12 (Base 50)    
Moisture  
Dew Point 56 °F    
Average Humidity 85    
Maximum Humidity 100    
Minimum Humidity 72    
Precipitation  
Precipitation 0.00 in - - ()
Sea Level Pressure  
Sea Level Pressure 30.24 in    
Wind  
Wind Speed 6 mph ()    
Max Wind Speed 12 mph    
Max Gust Speed -    
Visibility 6.2 miles    
Events Rain    
Averages and records for this station are not official NWS values.
T = Trace of Precipitation, MM = Missing Value Source: Averaged Metar Reports

Daily Weather History Graph

Daily Weather History Graph

Search for Another Location

Airport or City:

Astronomy

Aug. 10, 2018 Rise Set
Actual Time 6:00 AM CEST 8:35 PM CEST
Civil Twilight 5:25 AM CEST 9:10 PM CEST
Nautical Twilight 4:40 AM CEST 9:54 PM CEST
Astronomical Twilight 3:48 AM CEST 10:46 PM CEST
Moon 4:29 AM CEST (8/10) 8:06 PM CEST (8/10)
Length of Visible Light 15h 45m
Length of Day
14h 35m
Waning Crescent, 2% of the Moon is Illuminated
Aug 10
Waning Crescent
Aug 11
New
Aug 18
First Quarter
Aug 26
Full
Sep 3
Last Quarter

Hourly Weather History & Observations

Time (CEST) Temp. Dew Point Humidity Pressure Visibility Wind Dir Wind Speed Gust Speed Precip Events Conditions
12:20 AM 68.0 °F 59.0 °F 73% 30.12 in - West 5.8 mph - N/A   Clear
12:50 AM 66.2 °F 60.8 °F 83% 30.12 in - West 5.8 mph - N/A   Clear
1:20 AM 64.4 °F 60.8 °F 88% 30.12 in - Variable 2.3 mph - N/A   Clear
1:50 AM 64.4 °F 60.8 °F 88% 30.12 in 6.2 mi SSW 6.9 mph - N/A Rain Light Rain
2:20 AM 66.2 °F 60.8 °F 83% 30.15 in 6.2 mi WSW 11.5 mph - N/A Rain Light Rain
2:50 AM 62.6 °F 60.8 °F 94% 30.15 in 5.6 mi SW 10.4 mph - N/A Rain Rain
3:20 AM 62.6 °F 60.8 °F 94% 30.15 in 6.2 mi SSW 10.4 mph - N/A Rain Rain
3:50 AM 62.6 °F 60.8 °F 94% 30.15 in 6.2 mi SSW 8.1 mph - N/A Rain Light Rain
4:20 AM 62.6 °F 60.8 °F 94% 30.15 in 6.2 mi SSW 8.1 mph - N/A Rain Light Rain
4:50 AM 62.6 °F 60.8 °F 94% 30.15 in 6.2 mi South 6.9 mph - N/A Rain Light Rain
5:20 AM 62.6 °F 60.8 °F 94% 30.18 in 6.2 mi SSW 4.6 mph - N/A Rain Light Rain
5:50 AM 62.6 °F 60.8 °F 94% 30.18 in 6.2 mi South 3.5 mph - N/A   Mostly Cloudy
6:20 AM 62.6 °F 60.8 °F 94% 30.18 in 6.2 mi South 3.5 mph - N/A   Overcast
6:50 AM 64.4 °F 60.8 °F 88% 30.18 in 6.2 mi SW 4.6 mph - N/A   Mostly Cloudy
7:20 AM 64.4 °F 60.8 °F 88% 30.21 in 6.2 mi West 8.1 mph - N/A   Mostly Cloudy
7:50 AM 64.4 °F 59.0 °F 83% 30.21 in 6.2 mi NW 11.5 mph - N/A   Mostly Cloudy
8:20 AM 62.6 °F 53.6 °F 72% 30.24 in 6.2 mi WNW 9.2 mph - N/A Rain Light Rain
8:50 AM 59.0 °F 53.6 °F 82% 30.27 in 6.2 mi West 10.4 mph - N/A Rain Light Rain
9:20 AM 59.0 °F 53.6 °F 82% 30.27 in 6.2 mi West 4.6 mph - N/A Rain Light Rain
9:50 AM 59.0 °F 53.6 °F 82% 30.27 in 6.2 mi West 5.8 mph - N/A Rain Light Rain
10:20 AM 59.0 °F 55.4 °F 88% 30.30 in 6.2 mi West 5.8 mph - N/A Rain Light Rain
10:50 AM 57.2 °F 53.6 °F 88% 30.30 in 6.2 mi West 6.9 mph - N/A Rain Light Rain
11:20 AM 57.2 °F 53.6 °F 88% 30.30 in 6.2 mi West 8.1 mph - N/A Rain Light Rain
11:50 AM 57.2 °F 53.6 °F 88% 30.30 in 6.2 mi West 6.9 mph - N/A Rain Light Rain
12:20 PM 59.0 °F 51.8 °F 77% 30.30 in 6.2 mi West 6.9 mph - N/A Rain Light Rain
12:50 PM 57.2 °F 51.8 °F 82% 30.30 in 6.2 mi West 5.8 mph - N/A Rain Light Rain
1:20 PM 59.0 °F 53.6 °F 82% 30.30 in 6.2 mi West 3.5 mph - N/A Rain Light Rain
1:50 PM 59.0 °F 53.6 °F 82% 30.30 in 6.2 mi SW 4.6 mph - N/A Rain Light Rain
2:20 PM 60.8 °F 53.6 °F 77% 30.30 in 6.2 mi South 5.8 mph - N/A   Mostly Cloudy
2:50 PM 60.8 °F 53.6 °F 77% 30.30 in 6.2 mi South 3.5 mph - N/A   Mostly Cloudy
3:20 PM 60.8 °F 53.6 °F 77% 30.30 in 6.2 mi SSE 4.6 mph - N/A   Mostly Cloudy
3:50 PM 60.8 °F 53.6 °F 77% 30.30 in 6.2 mi South 3.5 mph - N/A   Mostly Cloudy
4:20 PM 60.8 °F 53.6 °F 77% 30.30 in 6.2 mi South 5.8 mph - N/A   Mostly Cloudy
4:50 PM 60.8 °F 53.6 °F 77% 30.30 in 6.2 mi South 4.6 mph - N/A   Mostly Cloudy
5:20 PM 62.6 °F 53.6 °F 72% 30.30 in 6.2 mi SSE 5.8 mph - N/A   Mostly Cloudy
5:50 PM 62.6 °F 53.6 °F 72% 30.30 in 6.2 mi SSE 5.8 mph - N/A   Mostly Cloudy
6:20 PM 62.6 °F 53.6 °F 72% 30.27 in 6.2 mi SSE 6.9 mph - N/A   Mostly Cloudy
6:50 PM 62.6 °F 55.4 °F 77% 30.27 in 6.2 mi SSE 8.1 mph - N/A   Mostly Cloudy
7:20 PM 62.6 °F 57.2 °F 82% 30.27 in 6.2 mi SSE 8.1 mph - N/A   Mostly Cloudy
7:50 PM 60.8 °F 57.2 °F 88% 30.27 in 6.2 mi South 6.9 mph - N/A   Mostly Cloudy
8:20 PM 60.8 °F 55.4 °F 82% 30.27 in - South 5.8 mph - N/A   Clear
8:50 PM 59.0 °F 55.4 °F 88% 30.27 in - South 5.8 mph - N/A   Clear
9:20 PM 59.0 °F 55.4 °F 88% 30.27 in - South 4.6 mph - N/A   Clear
9:50 PM 59.0 °F 55.4 °F 88% 30.27 in - South 4.6 mph - N/A   Clear
10:20 PM 57.2 °F 53.6 °F 88% 30.27 in - Variable 2.3 mph - N/A   Clear
10:50 PM 57.2 °F 53.6 °F 88% 30.27 in - Variable 1.2 mph - N/A   Clear
11:20 PM 55.4 °F 53.6 °F 94% 30.27 in - Variable 2.3 mph - N/A   Clear
11:50 PM 53.6 °F 53.6 °F 100% 30.27 in - Variable 2.3 mph - N/A   Clear